Regional Weather Roundup
Issued by NWS

Home | Current Version | Previous Version | Text Only | Print | Product List | Glossary On
Versions: 1 2 3 4 5 6 7 8 9 10 11 12 13 14 15 16 17 18 19 20 21 22 23 24 25 26 27 28 29 30 31 32 33 34 35 36 37 38 39 40 41 42 43 44 45 46 47 48 49 50
000
ASUS46 KPQR 280410
RWROR

OREGON REGIONAL WEATHER ROUNDUP
NATIONAL WEATHER SERVICE PORTLAND OR
900 PM PDT FRI MAY 27 2016

NOTE: "FAIR" INDICATES FEW OR NO CLOUDS BELOW 12,000 FEET WITH
NO SIGNIFICANT WEATHER AND/OR OBSTRUCTIONS TO VISIBILITY.

ORZ001>013-280500-
NORTHWEST OREGON


CITY           SKY/WX    TMP DP  RH WIND       PRES   REMARKS
ASTORIA        MOCLDY    53  45  74 SW3       30.18S
NEWPORT        CLEAR     52  45  76 N3        30.24S
PORTLAND       MOCLDY    58  41  53 NW9       30.16S
VANCOUVER WA   CLOUDY    57  41  55 NW8       30.16S
SCAPPOOSE      PTCLDY    54  41  61 NW3       30.16S
HILLSBORO      PTCLDY    53  41  63 NW6       30.17R
AURORA         CLOUDY    57  42  57 N6        30.17S
MCMINNVILLE    CLEAR     53  41  63 NW3       30.18S
SALEM          CLEAR     55  41  59 W8        30.17R
CORVALLIS        N/A     54  41  62 W7        30.19S
EUGENE         MOCLDY    52  43  71 N7        30.17R
$$

ORZ021-028-280500-
SOUTHWEST OREGON


CITY           SKY/WX    TMP DP  RH WIND       PRES   REMARKS
NORTH BEND     CLEAR     55  46  71 N12       30.21R
BROOKINGS      CLEAR     60  44  55 VRB7      30.05S
ROSEBURG       CLEAR     60  42  51 N7        30.14R
SEXTON SUMMIT  CLEAR     44  35  70 VRB7G22   30.11S
MEDFORD        CLEAR     61  37  41 NW10      30.10R
$$

ORZ014>016-041-280500-
COLUMBIA GORGE


CITY           SKY/WX    TMP DP  RH WIND       PRES   REMARKS
TROUTDALE      CLOUDY    58  42  55 CALM      30.16S
HOOD RIVER     PTCLDY    54  39  58 W3        30.12S
THE DALLES     PTCLDY    58  39  49 NW15      30.10R
$$

ORZ029>031-041-044-049-050-061>064-502-503-505>511-280500-
EASTERN OREGON


CITY           SKY/WX    TMP DP  RH WIND       PRES   REMARKS
REDMOND        CLEAR     50  30  46 NW13      30.10R
BEND           CLEAR     48  32  53 NW9       30.10R
PRINEVILLE     PTCLDY    48  34  57 N10       30.10R
KLAMATH FALLS  CLEAR     52  32  46 NW14      30.06R
LAKEVIEW       CLOUDY    55  27  33 N13G22    30.05R
HERMISTON      PTCLDY    59  39  47 SW15G23   30.01R
PENDLETON      PTCLDY    55  35  47 W17       30.03R
JOHN DAY         N/A    N/A N/A N/A MISG        N/A
MEACHAM        CLEAR     45  28  51 CALM      30.06R
LA GRANDE      CLEAR     52  21  30 NW6       30.04R
BAKER CITY     CLEAR     48  27  44 N13       30.04R
BURNS          CLEAR     48  25  40 NW9       30.02R
ROME             N/A     54  15  21 NW7       29.98R
ONTARIO        CLEAR     58  29  33 N8        29.97R
$$



USA.gov is the U.S. government's official web portal to all federal, state and local government web resources and services.